Location: Colorado Springs
(38.8340°N, 104.8210°W)
Time: 10:10:54
(UTC-06:00)

ISS - Pass Details

Date: 14 October 2017
Orbit: 401 x 408 km, 51.6° (Epoch: 21 October)

Event Time Altitude Azimuth Distance (km) Brightness Sun altitude
Rises 20:34:53 0° 292° (WNW) 2,323 1.3 -26.6°
Reaches altitude 10° 20:37:31 10° 270° (W) 1,461 -0.1 -27.1°
Enters shadow 20:39:03 16° 243° (WSW) 1,174 -1.0 -27.4°
